This is the latest recevied weather packets stored in our database for station/object AI9F. If no packets are shown the sender has not sent any weather packets the latest 10 day(s).
| Time | Temp. | Humidity | Pressure | Rain* | Wind** | Luminosity | Snow |
|---|---|---|---|---|---|---|---|
| 1777457112 | 12.78° C | 96% | 1012.7 hPa | 0 mm | - | 0 W/m² | - |
| 1777456809 | 12.78° C | 96% | 1012.3 hPa | 0 mm | - | 0 W/m² | - |
| 1777456508 | 12.78° C | 96% | 1012 hPa | 0 mm | - | 0 W/m² | - |
| 1777456204 | 12.78° C | 96% | 1012.1 hPa | 0 mm | - | 0 W/m² | - |
| 1777455900 | 12.78° C | 96% | 1012.1 hPa | 1.78 mm | - | 0 W/m² | - |
| 1777455597 | 12.78° C | 96% | 1012.4 hPa | 1.78 mm | - | 0 W/m² | - |
| 1777455294 | 12.78° C | 96% | 1012.2 hPa | 0 mm | - | 0 W/m² | - |
| 1777454990 | 13.33° C | 96% | 1012.2 hPa | 0 mm | - | 0 W/m² | - |
| 1777454688 | 13.33° C | 97% | 1012.2 hPa | 0 mm | - | 0 W/m² | - |
| 1777454383 | 13.33° C | 97% | 1012.3 hPa | 0 mm | - | 0 W/m² | - |
| 1777454080 | 13.33° C | 97% | 1012.3 hPa | 0 mm | - | 0 W/m² | - |
| 1777453776 | 13.33° C | 97% | 1012.2 hPa | 0 mm | - | 0 W/m² | - |
| 1777453474 | 13.33° C | 96% | 1012.4 hPa | 0 mm | - | 0 W/m² | - |
| 1777453170 | 13.33° C | 96% | 1012.3 hPa | 3.05 mm | - | 0 W/m² | - |
| 1777452867 | 13.33° C | 96% | 1012.2 hPa | 3.05 mm | - | 0 W/m² | - |
| 1777452565 | 13.33° C | 96% | 1011.8 hPa | 1.27 mm | - | 0 W/m² | - |
| 1777452261 | 13.33° C | 96% | 1012.2 hPa | 1.27 mm | - | 0 W/m² | - |
| 1777451961 | 13.33° C | 96% | 1012.2 hPa | 4.32 mm | - | 0 W/m² | - |
| 1777451658 | 13.89° C | 96% | 1012.1 hPa | 8.89 mm | - | 0 W/m² | - |
| 1777451353 | 13.89° C | 97% | 1012.3 hPa | 6.1 mm | - | 0 W/m² | - |
| 1777451049 | 13.89° C | 97% | 1012.1 hPa | 1.27 mm | - | 0 W/m² | - |
| 1777450744 | 13.89° C | 96% | 1012 hPa | 1.78 mm | - | 0 W/m² | - |
| 1777450440 | 13.89° C | 96% | 1011.8 hPa | 1.78 mm | - | 0 W/m² | - |
| 1777450137 | 14.44° C | 96% | 1011.7 hPa | 1.27 mm | - | 0 W/m² | - |
| 1777449833 | 14.44° C | 96% | 1011.5 hPa | 1.27 mm | - | 0 W/m² | - |
* Rain latest hour (hover to see other rain measurements)
** Current wind speed in m/s (hover to see current wind gust speed)